Lid_Strength_Index
1 1 1 1 1 -0 0 3 4 4 3 3 3 3 3 4 4 5 5 3 0 -0 -0 0 1 2 3 4 4 5 5 5 6 6 6 6 6 6 6 6 5 5 5
1 1 1 0 1 0 2 4 4 4 4 4 4 4 4 4 4 6 6 5 2 1 1 1 2 3 4 4 5 6 6 6 6 7 7 7 7 6 6 6 5 5 5
1 1 0 2 2 3 3 4 4 5 6 5 6 6 6 4 5 6 7 8 7 4 3 3 3 4 4 5 6 6 7 7 7 7 7 7 7 7 6 6 6 5 5
1 1 1 2 3 5 4 5 5 6 7 7 8 8 8 7 6 5 7 8 9 9 6 5 5 5 5 5 6 7 7 8 8 8 8 8 7 7 7 6 6 6 5
1 2 1 2 4 4 5 5 6 6 8 9 9 9 9 9 8 8 10 10 10 10 10 7 7 7 7 7 7 8 8 8 8 8 8 8 7 7 7 7 6 6 6
2 3 3 3 3 5 5 6 7 7 8 9 10 10 10 10 10 11 11 11 11 12 12 12 13 12 10 9 9 9 9 9 9 9 9 8 8 8 7 6 6 6 5
3 3 3 4 5 6 6 6 7 9 10 10 11 11 11 11 11 12 12 12 12 13 13 14 15 15 14 11 11 10 10 10 9 9 9 8 8 8 7 6 6 6 5
4 4 5 6 6 7 7 7 8 10 11 10 11 12 14 14 13 12 12 12 13 13 14 14 15 15 16 16 16 12 11 10 10 10 9 9 8 7 7 6 6 5 5
5 4 5 6 7 7 8 7 9 9 12 10 10 10 14 14 14 13 13 13 13 14 14 14 15 16 17 17 15 14 11 11 11 10 10 9 8 7 7 6 6 5 5
6 7 6 7 7 8 8 8 8 8 10 11 10 10 10 11 14 15 14 13 14 14 14 15 17 17 17 18 16 15 14 12 12 11 11 9 8 7 7 6 5 5 4
7 8 8 8 8 8 8 8 9 8 9 10 10 11 11 12 13 14 16 16 14 14 14 15 16 17 17 17 18 16 13 12 12 11 10 9 8 8 7 6 5 5 4
10 9 9 9 9 9 8 8 7 7 8 9 10 12 12 13 14 14 15 16 16 15 15 16 15 16 16 17 16 14 13 12 11 11 10 10 9 8 7 6 5 5 5
11 11 10 11 10 10 9 8 8 8 9 11 11 12 12 13 13 13 16 16 17 15 16 15 15 16 15 16 16 13 12 12 11 11 10 10 9 8 8 7 6 5 5
9 10 11 12 12 11 11 11 11 11 11 12 13 13 14 13 14 14 15 16 18 18 17 16 15 14 15 15 15 13 16 12 12 11 10 9 8 8 8 7 6 6 6
10 11 12 13 13 13 12 12 13 13 13 13 14 14 14 15 15 15 15 16 17 19 19 16 17 15 15 15 15 15 16 14 11 10 10 9 9 8 8 7 7 7 7
12 13 13 14 14 14 14 14 14 14 14 14 14 14 14 15 15 15 16 17 18 19 20 18 17 16 15 14 14 15 15 13 11 10 10 10 9 9 8 8 8 8 7
13 14 13 14 14 14 14 14 13 13 14 14 15 15 15 15 17 17 17 17 17 18 20 19 18 17 17 16 15 15 14 14 14 11 10 9 9 9 9 9 9 9 8
15 15 15 14 14 13 13 13 13 14 14 15 15 16 16 15 17 17 17 18 17 17 19 19 19 18 17 16 16 15 15 15 14 12 10 10 10 10 10 10 9 9 9
14 14 14 14 14 14 13 14 14 15 15 15 16 16 16 17 17 17 17 18 17 17 17 19 18 17 17 16 16 16 15 15 14 13 11 10 10 10 10 10 10 10 10
14 14 14 14 14 14 15 15 15 16 16 16 16 16 16 17 17 16 16 17 17 17 17 18 17 17 16 15 16 15 16 15 16 15 14 13 12 12 11 10 10 11 10
15 15 16 16 16 16 16 16 16 17 17 17 16 16 15 15 14 14 15 16 16 16 16 16 16 16 16 16 16 15 16 15 16 16 16 16 16 15 15 12 12 11 11
17 17 17 17 17 16 15 15 15 16 16 15 15 15 15 15 14 13 12 12 12 14 15 16 16 16 15 15 15 16 16 17 18 17 18 18 17 17 16 17 14 13 12
17 18 18 17 17 16 14 14 14 15 15 15 15 15 15 14 14 15 14 13 12 11 11 12 14 14 14 14 14 15 15 16 17 16 18 18 19 19 18 17 14 13 12
17 17 17 17 16 15 14 14 14 15 15 15 15 15 15 14 13 13 12 12 12 12 12 13 14 14 14 13 14 14 14 14 14 14 17 18 15 17 17 18 14 13 13
16 17 17 17 17 17 15 15 16 16 16 16 15 14 14 14 13 12 14 14 14 13 12 11 11 10 10 10 10 11 13 13 14 14 17 18 18 19 23 21 20 15 13
17 17 18 18 19 19 16 16 16 17 17 16 15 15 15 15 14 14 15 16 16 16 15 14 13 12 12 12 10 11 12 14 14 15 15 17 18 22 24 24 22 21 20